Location: Daybis Observatory
(33.4273°N, 88.8061°W)
Time: 08:31:54
(UTC-05:00)

Daily predictions for brighter satellites

Satellite Brightness Start Highest point End
(mag) Time Altitude Azimuth Time Altitude Azimuth Time Altitude Azimuth
Cosmos 2026 Rocket 4.5 19:53:20 10° N 19:59:06 39° E 20:04:44 10° SSE
Sakura Rocket 3.6 19:55:56 10° SW 19:59:09 31° SSE 20:02:36 10° ESE
Cosmos 2360 Rocket 2.8 19:54:59 10° SSE 20:00:00 34° ESE 20:05:03 10° NE
ALOS 2.3 19:56:26 10° SSE 20:01:06 90° WSW 20:05:47 10° NNW
Cosmos 1825 3.0 19:59:03 10° NNE 20:02:28 31° E 20:05:52 10° SE
H-2A R/B 2.9 20:00:26 10° SSE 20:04:13 56° ENE 20:08:01 10° N
Cosmos 1862 Rocket 4.4 20:00:22 10° SSE 20:04:19 32° E 20:08:17 10° NNE
Cosmos 1408 3.3 20:01:13 10° NNE 20:04:35 33° E 20:07:53 10° SSE
COSMOS 2428 4.2 20:02:48 10° SE 20:06:01 16° E 20:09:14 10° ENE
Atlas Centaur 2 2.6 20:02:09 10° WSW 20:07:58 64° S 20:15:19 10° E
ATLAS 5 CENTAUR R/B 3.5 20:06:57 10° N 20:12:16 31° NE 20:17:48 11° ESE
Cosmos 1869 Rocket 4.4 20:09:18 10° NNW 20:13:41 57° W 20:18:02 10° S
Cosmos 1869 3.9 20:12:48 10° SSW 20:16:41 61° W 20:20:35 10° N
USA 229 DEB 3.8 20:10:49 10° S 20:17:19 50° ESE 20:23:54 10° NE
USA 229 3.9 20:10:57 10° S 20:17:25 49° ESE 20:24:00 10° NE
HJ-1C 4.0 20:15:09 10° S 20:18:33 62° W 20:21:58 10° NNW
Cosmos 2322 4.0 20:14:43 10° S 20:20:06 45° ESE 20:25:30 10° NE
Cosmos 1634 Rocket 4.3 20:15:42 10° S 20:21:59 76° W 20:28:20 10° N
SL-16 R/B 3.3 20:18:51 10° SW 20:24:20 50° WNW 20:29:51 10° N
Cosmos 1092 Rocket 4.5 20:19:34 10° NNW 20:25:52 67° W 20:32:07 10° S
Cosmos 220 Rocket 4.3 20:22:00 10° NNW 20:26:25 70° WSW 20:30:48 10° S
Resurs 1-3 3.5 20:23:29 10° SSE 20:27:51 78° ENE 20:32:15 10° N
USA 186 1.8 20:25:43 13° SSE 20:28:01 44° ENE 20:30:53 10° N
Intercosmos 25 Rocket 3.0 20:24:55 10° S 20:28:04 85° E 20:32:03 10° N
ATLAS CENTAUR R/B 4.0 20:25:55 10° WNW 20:28:55 27° SW 20:35:23 10° S
Lacrosse 4 Rocket 1.9 20:27:56 10° NNW 20:32:15 64° WSW 20:36:39 10° SSE
Helios 1B rocket 2.5 20:30:45 10° NNE 20:34:46 52° E 20:38:45 10° S
CZ-2D R/B 3.3 20:31:05 10° SSE 20:34:58 88° WSW 20:38:52 10° NNW
Cosmos 397 4.4 20:33:58 10° NNW 20:38:03 70° ENE 20:41:09 17° SE
Cosmos 1844 Rocket 4.5 20:41:08 10° NNE 20:44:12 15° NE 20:46:15 12° E
Cosmos 2333 Rocket 3.9 20:46:22 14° E 20:46:22 14° E 20:48:21 10° ENE
Meteor 2-10 Rocket 3.8 20:42:27 10° S 20:48:10 64° E 20:53:53 10° NNE
Cosmos 1655 Rocket 4.0 20:45:58 10° N 20:52:22 90° WSW 20:58:41 10° S
Cosmos 2221 Rocket 4.4 20:53:09 27° ESE 20:54:16 30° E 20:58:08 10° NNE
Cosmos 2279 Rocket 4.4 20:50:58 10° SSW 20:57:09 68° W 21:03:21 10° N
SJ-11-01 4.4 20:55:34 24° SE 20:58:14 57° ENE 21:02:49 10° N
CZ-4B DEB 2.6 21:00:34 50° SE 21:01:06 63° ENE 21:04:06 10° N
Cosmos 1933 4.2 20:57:52 10° SSW 21:01:46 49° W 21:05:41 10° N
Cosmos 2219 Rocket 3.0 21:01:52 27° ESE 21:02:27 28° ESE 21:07:09 10° NE
Cosmos 968 Rocket 3.5 21:02:14 10° N 21:07:25 63° ENE 21:09:47 32° SE
Resurs 01 Rocket 3.6 21:07:39 10° SSW 21:11:24 27° W 21:15:11 10° NW
SAR-Lupe-4 4.0 21:12:36 28° S 21:14:15 60° WSW 21:17:49 10° NNW
USA 234 4.1 21:14:54 23° E 21:18:18 38° NE 21:24:14 10° NNW
Cosmos 1908 Rocket 3.4 21:15:11 10° N 21:19:32 83° E 21:20:54 43° SSE
Cosmos 1782 4.3 21:24:25 24° NE 21:24:25 24° NE 21:26:31 10° NNE
Envisat 3.3 21:20:08 21° S 21:23:32 65° W 21:28:34 10° NNW
Meteor 1-26 Rocket 4.5 21:19:13 10° SSW 21:24:51 71° W 21:30:39 10° N
Cosmos 2263 Rocket 3.1 21:22:08 10° NW 21:27:22 43° WSW 21:31:15 17° SSW
Helios 1A 4.1 21:25:22 18° SSW 21:28:04 40° W 21:32:05 10° NNW
Sich 1 Rocket 3.7 21:26:18 10° N 21:30:48 73° W 21:32:21 40° SSW
Okean 1-7 2.9 21:33:16 61° S 21:34:02 85° E 21:38:27 10° N
Cosmos 1782 Rocket 3.4 21:29:57 10° N 21:34:19 68° E 21:34:23 68° E
OAO 3 Rocket 3.3 21:29:35 10° W 21:34:22 56° SSW 21:34:50 54° S
H-2A R/B 3.6 21:37:56 20° NE 21:37:56 20° NE 21:40:47 10° NNE
MetOp-B 4.3 21:38:14 50° E 21:38:44 51° ENE 21:43:54 10° N
SEDSat Delta rocket 3.6 21:34:12 10° W 21:39:14 58° S 21:39:49 54° SSE
Cosmos 1939 Rocket 3.8 21:38:03 32° SW 21:39:18 43° W 21:43:08 10° NNW
Cosmos 1867 3.7 21:34:20 10° NW 21:39:43 66° WSW 21:41:15 45° S
SeaSat 1 4.1 21:41:46 21° NE 21:41:46 21° NE 21:45:14 10° N
CZ-4C R/B 4.2 21:36:22 10° N 21:42:07 25° NE 21:44:27 21° ENE
ERS-1 Rocket 2.8 21:42:00 63° SSE 21:42:50 86° ENE 21:47:53 10° NNW
Cosmos 2360 Rocket 4.3 21:39:13 10° WSW 21:43:57 27° WNW 21:48:44 10° N
Cosmos 1570 Rocket 4.0 21:47:23 62° E 21:47:23 62° E 21:52:13 10° NNE
SPOT 5 3.4 21:48:33 43° NE 21:48:33 43° NE 21:52:18 10° N
COSMOS 2428 3.3 21:44:08 10° SW 21:49:41 57° WNW 21:55:18 10° NNE
Okean 2 Rocket 3.3 21:47:54 10° N 21:51:48 64° NNE 21:51:48 64° NNE
Sakura Rocket 4.5 21:48:59 10° WSW 21:50:44 25° WSW 21:50:44 25° WSW
Cosmos 1980 4.4 21:58:04 38° NE 21:58:04 38° NE 22:01:44 10° NNE
NOAA 11 4.0 21:56:07 75° SE 21:56:32 81° ENE 22:02:02 10° N
ATLAS 5 CENTAUR R/B 3.3 21:51:14 10° NW 21:57:08 45° WSW 21:59:23 33° SSW
Atlas Centaur 2 2.7 21:50:41 10° W 21:57:24 66° S 21:58:46 57° SE
Cosmos 2208 Rocket 4.0 21:59:30 68° NE 21:59:30 68° NE 22:04:17 10° NNE
Nimbus 7 Rocket 4.3 21:53:09 10° NNE 21:59:05 67° ESE 21:59:10 67° ESE
ARGOS 3.2 22:00:07 62° ENE 22:00:07 62° ENE 22:05:09 10° N
Meteor 1-10 Rocket 4.2 22:00:11 68° S 22:00:59 86° E 22:06:53 10° N
NOSS 3-1 (C) 3.5 21:55:24 10° SW 22:01:00 69° WNW 22:07:14 10° NNE
Cosmos 1844 4.0 21:57:59 10° N 22:03:07 52° NE 22:03:07 52° NE
MOS 1-B Rocket 3.8 22:06:16 70° ENE 22:06:20 70° ENE 22:11:55 10° N
Milstar 3 3.7 22:03:20 10° W 22:09:38 31° SSW 22:09:38 31° SSW
NOSS 3-1 (A) 3.5 22:16:00 38° SW 22:18:16 71° WNW 22:24:32 10° NNE
Cosmos 1417 Rocket 4.4 22:22:51 88° WSW 22:22:53 88° W 22:29:16 10° N
Cosmos 2237 Rocket 2.8 22:24:38 49° NNE 22:24:38 49° NNE 22:28:44 10° NNE
SPOT 1/Viking Rocket 4.1 22:26:06 54° N 22:26:06 54° N 22:30:07 10° N
Terra 3.7 22:28:13 22° NNE 22:28:13 22° NNE 22:30:13 10° N
Cosmos 1844 Rocket 3.0 22:23:01 10° NNW 22:27:56 61° WNW 22:27:56 61° WNW
Cosmos 2333 Rocket 2.6 22:28:13 56° W 22:28:51 60° WNW 22:34:34 10° NNE
NOSS 0 Rocket 4.1 22:30:33 66° W 22:31:03 69° WNW 22:37:11 10° NNE
Cosmos 2278 Rocket 3.1 22:27:22 10° N 22:31:26 41° NNE 22:31:26 41° NNE
H-2A R/B 4.4 22:47:46 20° N 22:47:46 20° N 22:49:11 10° N
Cosmos 2219 Rocket 3.7 22:43:24 21° WSW 22:46:13 32° WNW 22:51:13 10° N
USA 234 3.8 23:02:14 49° W 23:02:14 49° W 23:07:28 10° NW
H-2A R/B 4.0 23:18:33 24° NW 23:18:33 24° NW 23:20:49 10° NNW
CZ-4C R/B 3.4 23:23:53 10° NW 23:29:38 57° NW 23:29:38 57° NW
SL-16 R/B 4.1 23:49:40 25° N 23:49:40 25° N 23:52:18 10° N
